Location: Muck Cross
(36.7179°N, 78.3678°W)
Time: 09:51:39
(UTC+00:00)

Vanguard 1 Rocket - Visible Passes

Search period start: 29 March 2023 00:00
Search period end: 08 April 2023 00:00
Orbit: 652 x 4223 km, 34.3° (Epoch: 28 March)

Date Brightness Start Highest point End Pass type
(mag) Time Alt. Az. Time Alt. Az. Time Alt. Az.
29 Mar 10.4 01:20:32 10° SW 01:45:08 52° SSE 01:55:07 35° E visible
29 Mar 10.0 03:51:28 10° WSW 04:12:30 66° SW 04:12:30 66° SW visible
29 Mar 9.9 06:26:28 10° W 06:52:49 25° ESE 06:55:28 10° ESE visible
29 Mar 8.8 09:10:07 35° WSW 09:11:53 37° SW 09:18:18 10° SSE visible
30 Mar 10.8 00:08:09 10° SSW 00:30:35 40° SE 00:48:46 13° E visible
30 Mar 9.9 02:36:00 10° WSW 03:01:55 69° SSE 03:06:08 61° ESE visible
30 Mar 10.5 05:09:54 10° W 05:45:46 - E 05:23:30 42° W visible
30 Mar 8.9 08:03:05 47° SSE 08:03:05 47° SSE 08:08:34 10° SE visible
30 Mar 9.6 10:20:23 11° WSW 10:24:25 14° SW 10:27:56 10° SSW visible
31 Mar 10.4 01:21:47 10° SW 01:47:05 59° SSE 01:59:39 30° E visible
31 Mar 9.9 03:53:29 10° WSW 04:17:01 76° SW 04:17:01 76° SW visible
31 Mar 10.0 06:28:41 10° W 06:56:09 21° ESE 06:58:12 10° ESE visible
31 Mar 9.1 09:13:28 30° SW 09:13:58 30° SW 09:20:23 10° SSE visible
01 Apr 10.8 00:08:59 10° SSW 00:32:17 47° SE 00:52:54 10° E visible
01 Apr 10.0 02:37:49 10° WSW 03:04:08 75° SSE 03:10:23 55° E visible
01 Apr 10.3 05:12:06 10° W 05:49:19 - ESE 05:27:43 48° W visible
01 Apr 9.2 08:06:39 36° SSE 08:06:39 36° SSE 08:11:01 10° SE visible
02 Apr 10.4 01:23:19 10° SW 01:49:03 66° SSE 02:03:38 26° E visible
02 Apr 9.8 03:55:37 10° W 04:20:57 83° S 04:20:57 83° S visible
02 Apr 10.3 06:30:53 10° W 06:59:54 15° SE 07:00:50 10° ESE visible
02 Apr 9.4 09:17:14 23° SW 09:17:14 23° SW 09:22:10 10° S visible
03 Apr 10.7 00:10:11 10° SW 00:34:00 54° SSE 00:55:39 10° ENE visible
03 Apr 10.1 02:39:48 10° WSW 03:06:22 79° SSE 03:14:01 51° E visible
03 Apr 10.2 05:14:18 10° W 05:31:20 53° W 05:31:20 53° W visible
03 Apr 9.7 08:10:35 23° SSE 08:10:35 23° SSE 08:13:18 10° SSE visible
04 Apr 10.4 01:25:06 10° WSW 01:51:04 72° SSE 02:06:57 24° E visible
04 Apr 9.8 03:57:49 10° W 04:23:37 83° S 04:24:15 82° SSE visible
04 Apr 10.6 06:33:04 10° W 07:03:59 - SE 06:41:33 27° W visible
04 Apr 9.8 09:21:20 15° SSW 09:21:20 15° SSW 09:23:28 10° SSW visible
05 Apr 10.7 00:11:42 10° SW 00:35:45 61° SSE 00:58:16 10° ENE visible
05 Apr 10.1 02:41:56 10° WSW 03:08:39 82° S 03:17:03 49° E visible
05 Apr 10.1 05:16:30 10° W 05:34:19 55° W 05:34:19 55° W visible
05 Apr 10.1 08:14:46 12° SSE 08:14:46 12° SSE 08:15:22 10° SSE visible
06 Apr 10.4 01:27:05 10° WSW 01:53:08 77° SSE 02:09:43 23° E visible
06 Apr 9.8 04:00:03 10° W 04:26:01 82° S 04:26:59 80° SSE visible
06 Apr 10.8 06:35:17 10° WNW 07:08:12 - SE 06:44:15 28° W visible
07 Apr 10.6 00:13:28 10° SW 00:37:34 67° SSE 01:00:48 10° E visible
07 Apr 10.2 02:44:10 10° W 03:10:57 84° S 03:19:34 49° E visible
07 Apr 10.2 05:18:40 10° W 05:36:49 54° W 05:36:49 54° W visible
07 Apr10.508:18:58SSE08:18:58SSE07:54:05Wvisible
